EW4504 Weather Reports


time (UTC)temp
C
wind
direction
speed
KPH
gust
KPH
rain 1hr
cm
rain 24hr
cm
rain mn
cm
humidity
%
barometer
mb
20260505002030 22 0 1.6 6.4 0.00 0.00 0.00 39 1014.0
20260505001544 22 190 1.6 8.0 0.00 0.00 0.00 39 1014.0
20260505001030 22 184 3.2 12.9 0.00 0.00 0.00 39 1013.9
20260505000531 22 198 6.4 12.9 0.00 0.00 0.00 39 1013.9
20260505000047 23 190 3.2 12.9 0.00 0.00 0.00 39 1013.8
20260504235531 23 212 6.4 14.5 0.00 0.00 0.00 39 1013.8
20260504235031 23 185 6.4 16.1 0.00 0.00 0.00 39 1013.8
20260504234540 23 202 8.0 16.1 0.00 0.00 0.00 38 1013.8
20260504234031 23 196 8.0 11.3 0.00 0.00 0.00 39 1013.7
20260504233529 23 209 4.8 14.5 0.00 0.00 0.00 38 1013.8
20260504233100 23 212 4.8 16.1 0.00 0.00 0.00 38 1013.9
20260504232530 23 217 6.4 16.1 0.00 0.00 0.00 38 1013.8
20260504232029 23 202 6.4 16.1 0.00 0.00 0.00 37 1013.8
20260504231543 23 188 6.4 12.9 0.00 0.00 0.00 37 1013.8
20260504231029 23 187 6.4 12.9 0.00 0.00 0.00 38 1013.8
20260504230531 24 223 4.8 16.1 0.00 0.00 0.00 38 1013.8
20260504230054 24 242 4.8 25.7 0.00 0.00 0.00 37 1013.7
20260504225533 24 206 9.7 25.7 0.00 0.00 0.00 37 1013.7
20260504225032 24 209 8.0 19.3 0.00 0.00 0.00 38 1013.6
20260504224542 25 209 8.0 17.7 0.00 0.00 0.00 38 1013.6
20260504224032 25 252 8.0 17.7 0.00 0.00 0.00 38 1013.6
20260504223531 25 174 6.4 17.7 0.00 0.00 0.00 39 1013.7
20260504223042 25 126 3.2 9.7 0.00 0.00 0.00 38 1013.7
20260504222531 25 196 3.2 12.9 0.00 0.00 0.00 38 1013.7
20260504222029 25 131 4.8 14.5 0.00 0.00 0.00 39 1013.8
20260504221540 25 219 4.8 16.1 0.00 0.00 0.00 39 1013.8
20260504221030 25 205 3.2 16.1 0.00 0.00 0.00 39 1013.8
20260504220531 25 217 6.4 16.1 0.00 0.00 0.00 39 1013.7
20260504220039 25 200 4.8 20.9 0.00 0.00 0.00 38 1013.8
20260504215531 25 182 8.0 20.9 0.00 0.00 0.00 38 1013.7
20260504215031 25 227 3.2 17.7 0.00 0.00 0.00 38 1013.7
20260504214548 25 169 9.7 17.7 0.00 0.00 0.00 37 1013.8
20260504214032 25 231 8.0 17.7 0.00 0.00 0.00 38 1013.7
20260504213529 25 252 4.8 16.1 0.00 0.00 0.00 36 1013.8
20260504213043 25 209 9.7 16.1 0.00 0.00 0.00 36 1013.8
20260504212530 25 221 3.2 19.3 0.00 0.00 0.00 35 1013.6
20260504212031 26 190 6.4 19.3 0.00 0.00 0.00 35 1013.7
20260504211542 26 194 4.8 11.3 0.00 0.00 0.00 35 1013.7
20260504211029 26 194 4.8 11.3 0.00 0.00 0.00 35 1013.8
20260504210536 25 209 3.2 14.5 0.00 0.00 0.00 35 1013.6
20260504210045 26 91 4.8 14.5 0.00 0.00 0.00 35 1013.7
20260504205530 26 237 6.4 14.5 0.00 0.00 0.00 36 1013.8
20260504205030 26 171 4.8 16.1 0.00 0.00 0.00 36 1013.8
20260504204546 26 115 8.0 16.1 0.00 0.00 0.00 38 1013.8
20260504204031 26 242 4.8 16.1 0.00 0.00 0.00 38 1013.8
20260504203531 26 188 4.8 16.1 0.00 0.00 0.00 38 1013.9
20260504203052 25 213 4.8 14.5 0.00 0.00 0.00 36 1013.8
20260504202529 25 219 6.4 14.5 0.00 0.00 0.00 35 1013.9
20260504202029 25 184 6.4 12.9 0.00 0.00 0.00 36 1013.9
20260504201543 25 290 4.8 14.5 0.00 0.00 0.00 37 1014.0
20260504201030 25 219 4.8 14.5 0.00 0.00 0.00 38 1014.1
20260504200530 25 209 4.8 16.1 0.00 0.00 0.00 38 1014.2
20260504200042 25 204 4.8 16.1 0.00 0.00 0.00 38 1014.4
20260504195532 25 217 3.2 12.9 0.00 0.00 0.00 39 1014.4
20260504195029 25 211 4.8 12.9 0.00 0.00 0.00 38 1014.5
20260504194539 25 232 3.2 14.5 0.00 0.00 0.00 38 1014.6
20260504194031 25 290 6.4 19.3 0.00 0.00 0.00 38 1014.7
20260504193533 25 175 8.0 19.3 0.00 0.00 0.00 38 1014.8
20260504193041 25 229 6.4 14.5 0.00 0.00 0.00 39 1014.8
20260504192529 25 196 3.2 9.7 0.00 0.00 0.00 39 1014.8
20260504192029 25 98 1.6 8.0 0.00 0.00 0.00 38 1014.9
20260504191537 25 40 1.6 12.9 0.00 0.00 0.00 38 1015.1
20260504191029 25 187 3.2 16.1 0.00 0.00 0.00 39 1015.2
20260504190531 25 193 6.4 16.1 0.00 0.00 0.00 39 1015.2
20260504190050 25 315 1.6 9.7 0.00 0.00 0.00 39 1015.3
20260504185532 25 351 3.2 9.7 0.00 0.00 0.00 39 1015.3
20260504185029 25 0 1.6 9.7 0.00 0.00 0.00 41 1015.3
20260504184542 24 229 4.8 12.9 0.00 0.00 0.00 43 1015.4
20260504184030 24 300 4.8 12.9 0.00 0.00 0.00 42 1015.5
20260504183530 24 323 4.8 12.9 0.00 0.00 0.00 41 1015.5
20260504183040 24 347 3.2 12.9 0.00 0.00 0.00 42 1015.6
20260504182531 24 327 4.8 12.9 0.00 0.00 0.00 43 1015.6
20260504182033 24 32 1.6 8.0 0.00 0.00 0.00 43 1015.6
20260504181544 24 228 4.8 9.7 0.00 0.00 0.00 43 1015.7
20260504181031 23 305 4.8 9.7 0.00 0.00 0.00 45 1015.9
20260504180533 23 323 3.2 12.9 0.00 0.00 0.00 43 1015.9
20260504180041 23 296 3.2 14.5 0.00 0.00 0.00 43 1016.1
20260504175530 23 355 4.8 14.5 0.00 0.00 0.00 42 1016.2
20260504175032 23 336 3.2 12.9 0.00 0.00 0.00 42 1016.2
20260504174543 24 5 3.2 12.9 0.00 0.00 0.00 43 1016.3
20260504174030 23 213 3.2 12.9 0.00 0.00 0.00 43 1016.4
20260504173529 23 215 3.2 11.3 0.00 0.00 0.00 43 1016.4
20260504173049 23 161 4.8 11.3 0.00 0.00 0.00 43 1016.5
20260504172530 23 94 3.2 11.3 0.00 0.00 0.00 43 1016.5
20260504172031 23 205 4.8 16.1 0.00 0.00 0.00 44 1016.6
20260504171543 23 213 1.6 16.1 0.00 0.00 0.00 43 1016.6
20260504171031 23 265 4.8 16.1 0.00 0.00 0.00 44 1016.8
20260504170530 23 212 4.8 11.3 0.00 0.00 0.00 44 1016.8
20260504151029 20 281 6.4 17.7 0.00 0.00 0.00 52 1017.8
20260504150534 20 229 3.2 11.3 0.00 0.00 0.00 51 1017.7
20260504141030 16 265 0.0 4.8 0.00 0.00 0.00 69 1017.9
20260504140534 16 0 1.6 4.8 0.00 0.00 0.00 70 1018.0
20260504130531 11 0 0.0 3.2 0.00 0.00 0.00 80 1018.0
20260504110529 6 0 0.0 0.0 0.00 0.00 0.00 87 1017.6
20260504100529 6 0 0.0 0.0 0.00 0.00 0.00 86 1017.6
20260504081545 7 0 0.0 0.0 0.00 0.00 0.00 85 1017.3
20260504081029 7 0 0.0 0.0 0.00 0.00 0.00 84 1017.3
20260504080529 7 0 0.0 0.0 0.00 0.00 0.00 84 1017.4
20260504050530 10 0 0.0 0.0 0.00 0.00 0.00 75 1018.1
20260504045530 10 0 0.0 0.0 0.00 0.00 0.00 74 1018.1
20260504045029 10 0 0.0 1.6 0.00 0.00 0.00 74 1018.2
20260504044545 10 0 0.0 1.6 0.00 0.00 0.00 73 1018.1
20260504044032 10 0 0.0 1.6 0.00 0.00 0.00 73 1018.1
20260504043531 10 0 0.0 0.0 0.00 0.00 0.00 73 1018.0
20260504043042 10 0 0.0 3.2 0.00 0.00 0.00 73 1018.1
20260504042530 10 0 0.0 3.2 0.00 0.00 0.00 73 1018.1
20260504042030 10 0 0.0 3.2 0.00 0.00 0.00 72 1018.2
20260504041541 11 0 0.0 1.6 0.00 0.00 0.00 72 1018.3
20260504041029 11 0 0.0 1.6 0.00 0.00 0.00 73 1018.2
20260504040530 11 0 0.0 1.6 0.00 0.00 0.00 72 1018.1
20260504040044 11 0 0.0 1.6 0.00 0.00 0.00 72 1018.1
20260504035530 11 0 0.0 0.0 0.00 0.00 0.00 71 1018.3
20260504035030 11 0 0.0 1.6 0.00 0.00 0.00 71 1018.2
20260504034536 11 0 0.0 1.6 0.00 0.00 0.00 71 1018.3
20260504034033 11 261 0.0 1.6 0.00 0.00 0.00 71 1018.2
20260504033530 11 0 0.0 3.2 0.00 0.00 0.00 70 1018.2
20260504033043 11 0 0.0 3.2 0.00 0.00 0.00 70 1018.2
20260504032530 11 0 0.0 3.2 0.00 0.00 0.00 69 1018.3
20260504032033 12 262 0.0 1.6 0.00 0.00 0.00 68 1018.3
20260504031546 12 0 0.0 0.0 0.00 0.00 0.00 67 1018.3
20260504031032 12 0 0.0 0.0 0.00 0.00 0.00 67 1018.2
20260504030530 12 0 0.0 0.0 0.00 0.00 0.00 67 1018.3
20260504030045 12 0 0.0 1.6 0.00 0.00 0.00 66 1018.3
20260504025530 12 0 0.0 1.6 0.00 0.00 0.00 66 1018.3
20260504025029 12 0 0.0 1.6 0.00 0.00 0.00 65 1018.3
20260504024537 12 0 0.0 0.0 0.00 0.00 0.00 64 1018.3
20260504024032 13 0 0.0 0.0 0.00 0.00 0.00 63 1018.2
20260504023530 13 0 0.0 0.0 0.00 0.00 0.00 62 1018.1
20260504023038 13 0 0.0 0.0 0.00 0.00 0.00 61 1018.1
20260504022531 13 0 0.0 0.0 0.00 0.00 0.00 60 1018.2
20260504022030 13 0 0.0 0.0 0.00 0.00 0.00 58 1018.1
20260504021544 14 0 0.0 0.0 0.00 0.00 0.00 58 1017.9
20260504021029 14 0 0.0 1.6 0.00 0.00 0.00 57 1017.9
20260504020531 14 0 0.0 1.6 0.00 0.00 0.00 57 1017.9
20260504020042 15 0 0.0 3.2 0.00 0.00 0.00 56 1017.8
20260504015530 15 0 0.0 4.8 0.00 0.00 0.00 55 1017.7
20260504015036 15 0 1.6 4.8 0.00 0.00 0.00 54 1017.6
20260504014553 15 0 0.0 4.8 0.00 0.00 0.00 54 1017.5
20260504014032 15 0 0.0 4.8 0.00 0.00 0.00 54 1017.5
20260504013533 15 264 0.0 4.8 0.00 0.00 0.00 54 1017.4
20260504013043 16 264 0.0 4.8 0.00 0.00 0.00 53 1017.4
20260504012532 16 264 3.2 4.8 0.00 0.00 0.00 52 1017.4
20260504012030 16 267 0.0 3.2 0.00 0.00 0.00 52 1017.4
20260504011539 16 267 1.6 3.2 0.00 0.00 0.00 51 1017.3
20260504011030 16 0 0.0 3.2 0.00 0.00 0.00 50 1017.3
20260504010530 16 0 0.0 3.2 0.00 0.00 0.00 50 1017.3
20260504010051 16 0 0.0 3.2 0.00 0.00 0.00 49 1017.3
20260504005533 16 0 0.0 4.8 0.00 0.00 0.00 48 1017.3
20260504005033 17 267 1.6 4.8 0.00 0.00 0.00 48 1017.2
20260504004543 17 267 0.0 6.4 0.00 0.00 0.00 47 1017.1
20260504004029 17 0 0.0 6.4 0.00 0.00 0.00 46 1017.1
20260504003530 17 267 1.6 6.4 0.00 0.00 0.00 46 1017.0
20260504003043 17 272 1.6 4.8 0.00 0.00 0.00 45 1016.8
20260504002529 17 273 1.6 4.8 0.00 0.00 0.00 44 1016.8